Simultaneous Nadir Overpasses (SNOs) Predictions

Prediction of SNOs between GOES-17 and TERRA Satellite Orbit:

Table of predicted SNOs for the next 14.0 days since TLE Epoch: 8/5/2023
Index Date Time (GOES-17) GOES-17 Lat,Lon TERRA Lat,Lon Distance(km) Time Diff (sec)
1 08/05/2023 04:59:05 -0.00,-104.70 0.07,-104.24 52.36 80
2 08/07/2023 17:02:57 0.00,-104.73 0.08,-105.21 54.20 80
3 08/09/2023 16:49:16 0.00,-104.73 -0.75,-101.26 394.83 80
4 08/10/2023 05:09:35 0.00,-104.71 -0.30,-106.19 168.64 80
5 08/12/2023 04:50:33 -0.00,-104.71 0.50,-102.24 280.26 80
6 08/12/2023 17:10:45 -0.00,-104.73 0.51,-107.15 275.56 80
7 08/14/2023 16:57:03 0.00,-104.73 -0.32,-103.20 173.93 80
8 08/15/2023 05:17:21 0.00,-104.71 -0.72,-108.13 388.73 80
9 08/17/2023 04:58:19 -0.01,-104.72 0.13,-104.18 61.21 80
10 08/17/2023 17:18:30 0.00,-104.73 0.93,-109.08 495.03 80
